FENGYUN 1C DEB, 33687

Orbit data source: Space-Track

FENGYUN 1C DEB, 33687 is space debris in SSO originally from a launch on Mon, 10 May 1999 UTC launched from the Taiyaun Space Center, China (TSC). Fengyun 1C debris stems from the Chinese weather satellite Fengyun-1C, which was intentionally destroyed by a Chinese anti-satellite missile in 2007. This event dramatically increased the amount of space debris, with thousands of trackable fragments posing hazards to satellites and human spaceflight. The Fengyun 1C debris cloud has become a focal point in discussions about space sustainability and the need for international regulations to prevent the creation of new debris.

Loading next visibility...
Identifier
33687, 1999-025DFY
Orbit
SSO
Country
Flag of CNCN / PRC
Related business
Manufacturer
Unknown
Mission
Spacecraft
Bus & Motor
Unknown
Mass
Unknown
Launch date (UTC)
1999-05-10 (26 years ago)
Launch vehicle
Unknown
Launch site
Taiyaun Space Center, China (TSC)
Object type
Payload
Rocket body
Debris
Shape & HBR
Unknown shape, 0.1 m
Radar Cross Section
Small (<0.1 m²)

Expand to show TLE details & history
Last TLE update: 5 days ago

TLE from 5 days ago
0 FENGYUN 1C DEB
1 33687U 99025DFY 25300.22005140  .00022882  00000-0  10197-2 0  9998
2 33687  98.9997 297.3551 0126173 129.3002 231.9495 15.14486148708032
Epoch: 2025-10-27T05:16Z
TLE epoch observation values (Epoch: 2025-10-27T05:16:52.440Z)
Latitude
-0.00004°
Longitude
-177.68842°
Altitude
579.923 km
Speed
7.541 km/s
True Right ascension
19h 49m 25s
True Declination
0° 00' 00"
Sunlit
Object was in daylight at epoch
Visualization orbit readout
Latitude
Unknown
Longitude
Unknown
Altitude
Unknown
Speed
Unknown
Apparent Right ascension
Unknown
Apparent Declination
Unknown
Sunlit
N/A
Visualization observer readout
Local Sidereal Time
07:41:57
Azimuth
Unknown
Elevation
Unknown
Doppler factor
Unknown
Orbital elements
Apogee altitude
606.617 km
Perigee altitude
432.556 km
Semi-major axis
6,897.724 km
Eccentricity
0.01262
Inclination
98.9997°
RAAN
297.3551°
Arg. of periapsis
129.3002°
True anomaly
230.82199°
Mean anomaly
231.9495°
Eccentric anomaly
231.38465°
Mean motion
3.78865 °/min
Orbital period
95.02 mins
BSTAR
0.0010197
Loading maneuver chart data...
Computing Atmospheric mass density...

Documentation

Showing up to 5 results
|